Weather History for Silver Bay, MN

Change the Weather History Date:

Saturday, August 10, 2013

  Actual Average Record
Temperature  
Mean Temperature 58 °F -  
Max Temperature 71 °F 71 °F 89 °F (2007)
Min Temperature 46 °F 46 °F 37 °F (2008)
Degree Days  
Heating Degree Days 6    
Growing Degree Days 8 (Base 50)    
Moisture  
Dew Point 48 °F    
Average Humidity 68    
Maximum Humidity 93    
Minimum Humidity 41    
Precipitation  
Precipitation 0.00 in - - ()
Sea Level Pressure  
Sea Level Pressure 30.11 in    
Wind  
Wind Speed 1 mph (SSW)    
Max Wind Speed 12 mph    
Max Gust Speed 17 mph    
Visibility 10 miles    
Events      
Averages and records for this station are not official NWS values.
T = Trace of Precipitation, MM = Missing Value Source: NWS Daily Summary

Daily Weather History Graph

Daily Weather History Graph

Search for Another Location

Airport:

Trip Planner

Search our weather history database for the weather conditions in past years. The results will help you decide how hot, cold, wet, or windy it might be!

Date:

Astronomy

Aug. 10, 2013 Rise Set
Actual Time 5:56 AM CDT 8:24 PM CDT
Civil Twilight 5:21 AM CDT 8:59 PM CDT
Nautical Twilight 4:38 AM CDT 9:41 PM CDT
Astronomical Twilight 3:49 AM CDT 10:31 PM CDT
Moon 10:03 AM CDT (8/10) 9:44 PM CDT (8/10)
Length of Visible Light 15h 37m
Length of Day
14h 28m
Waxing Crescent, 14% of the Moon is Illuminated
Aug 10
Waxing Crescent
Aug 14
First Quarter
Aug 20
Full
Aug 28
Last Quarter
Sep 5
New

Hourly Weather History & Observations

Time (CDT) Temp. Dew Point Humidity Pressure Visibility Wind Dir Wind Speed Gust Speed Precip Events Conditions
12:13 AM 55.4 °F 48.2 °F 77% 30.08 in 10.0 mi Calm Calm - N/A   Overcast
12:33 AM 55.4 °F 50.0 °F 82% 30.09 in 10.0 mi Calm Calm - N/A   Overcast
12:53 AM 55.4 °F 48.2 °F 77% 30.09 in 10.0 mi Calm Calm - N/A   Overcast
1:13 AM 55.4 °F 50.0 °F 82% 30.10 in 10.0 mi Calm Calm - N/A   Overcast
1:33 AM 55.4 °F 50.0 °F 82% 30.10 in 10.0 mi Calm Calm - N/A   Overcast
1:53 AM 53.6 °F 48.2 °F 82% 30.10 in 10.0 mi Calm Calm - N/A   Overcast
2:13 AM 53.6 °F 48.2 °F 82% 30.09 in 10.0 mi Calm Calm - N/A   Mostly Cloudy
2:33 AM 53.6 °F 48.2 °F 82% 30.10 in 10.0 mi Calm Calm - N/A   Scattered Clouds
2:54 AM 51.8 °F 48.2 °F 88% 30.10 in 10.0 mi Calm Calm - N/A   Unknown
3:13 AM 51.8 °F 46.4 °F 82% 30.10 in 10.0 mi Calm Calm - N/A   Clear
3:33 AM 50.0 °F 46.4 °F 87% 30.10 in 10.0 mi Calm Calm - N/A   Clear
3:53 AM 48.2 °F 44.6 °F 87% 30.11 in 10.0 mi Calm Calm - N/A   Clear
4:13 AM 48.2 °F 44.6 °F 87% 30.11 in 10.0 mi Calm Calm - N/A   Clear
4:33 AM 46.4 °F 44.6 °F 93% 30.12 in 10.0 mi Calm Calm - N/A   Clear
4:53 AM 46.4 °F 42.8 °F 87% 30.12 in 10.0 mi Calm Calm - N/A   Clear
5:13 AM 46.4 °F 42.8 °F 87% 30.13 in 10.0 mi Calm Calm - N/A   Mostly Cloudy
5:33 AM 46.4 °F 42.8 °F 87% 30.13 in 10.0 mi Calm Calm - N/A   Overcast
5:53 AM 48.2 °F 44.6 °F 87% 30.13 in 10.0 mi Calm Calm - N/A   Overcast
6:13 AM 48.2 °F 44.6 °F 87% 30.13 in 10.0 mi Calm Calm - N/A   Mostly Cloudy
6:33 AM 46.4 °F 44.6 °F 93% 30.14 in 10.0 mi Calm Calm - N/A   Mostly Cloudy
6:53 AM 46.4 °F 44.6 °F 93% 30.14 in 10.0 mi Calm Calm - N/A   Mostly Cloudy
7:13 AM 48.2 °F 46.4 °F 93% 30.15 in 10.0 mi Calm Calm - N/A   Mostly Cloudy
7:33 AM 51.8 °F 48.2 °F 88% 30.15 in 10.0 mi Calm Calm - N/A   Mostly Cloudy
7:53 AM 53.6 °F 50.0 °F 88% 30.15 in 10.0 mi Calm Calm - N/A   Scattered Clouds
8:13 AM 60.8 °F 50.0 °F 68% 30.15 in 10.0 mi Calm Calm - N/A   Clear
8:33 AM 60.8 °F 48.2 °F 63% 30.15 in 10.0 mi Calm Calm - N/A   Clear
8:53 AM 62.6 °F 48.2 °F 59% 30.15 in 10.0 mi Calm Calm - N/A   Clear
9:13 AM 62.6 °F 48.2 °F 59% 30.15 in 10.0 mi Calm Calm - N/A   Clear
9:33 AM 64.4 °F 46.4 °F 52% 30.14 in 10.0 mi Calm Calm - N/A   Clear
9:53 AM 64.4 °F 46.4 °F 52% 30.14 in 10.0 mi Calm Calm - N/A   Clear
10:13 AM 64.4 °F 44.6 °F 49% 30.14 in 10.0 mi Calm Calm - N/A   Clear
10:33 AM 66.2 °F 44.6 °F 46% 30.14 in 10.0 mi Calm Calm - N/A   Clear
10:53 AM 64.4 °F 44.6 °F 49% 30.14 in 10.0 mi Calm Calm - N/A   Clear
11:13 AM 68.0 °F 46.4 °F 46% 30.14 in 10.0 mi Calm Calm - N/A   Clear
11:33 AM 66.2 °F 48.2 °F 52% 30.13 in 10.0 mi Calm Calm - N/A   Clear
11:53 AM 66.2 °F 48.2 °F 52% 30.13 in 10.0 mi Calm Calm - N/A   Clear
12:13 PM 64.4 °F 48.2 °F 56% 30.14 in 10.0 mi Calm Calm - N/A   Clear
12:33 PM 66.2 °F 48.2 °F 52% 30.14 in 10.0 mi South 6.9 mph - N/A   Clear
12:53 PM 66.2 °F 48.2 °F 52% 30.13 in 10.0 mi South 11.5 mph - N/A   Clear
1:13 PM 68.0 °F 48.2 °F 49% 30.13 in 10.0 mi South 9.2 mph - N/A   Clear
1:33 PM 66.2 °F 48.2 °F 52% 30.13 in 10.0 mi SSW 10.4 mph 17.3 mph N/A   Clear
1:53 PM 69.8 °F 46.4 °F 43% 30.12 in 10.0 mi South 10.4 mph - N/A   Clear
2:13 PM 68.0 °F 48.2 °F 49% 30.12 in 10.0 mi South 10.4 mph - N/A   Clear
2:33 PM 66.2 °F 48.2 °F 52% 30.12 in 10.0 mi SSE 3.5 mph - N/A   Scattered Clouds
2:53 PM 69.8 °F 50.0 °F 49% 30.11 in 10.0 mi South 8.1 mph - N/A   Scattered Clouds
3:13 PM 69.8 °F 46.4 °F 43% 30.11 in 10.0 mi SW 9.2 mph - N/A   Clear
3:33 PM 69.8 °F 48.2 °F 46% 30.10 in 10.0 mi Calm Calm - N/A   Clear
3:53 PM 68.0 °F 46.4 °F 46% 30.10 in 10.0 mi SW 10.4 mph - N/A   Clear
4:13 PM 68.0 °F 48.2 °F 49% 30.10 in 10.0 mi SW 4.6 mph - N/A   Scattered Clouds
4:33 PM 71.6 °F 46.4 °F 41% 30.09 in 10.0 mi SSW 9.2 mph - N/A   Scattered Clouds
4:53 PM 68.0 °F 48.2 °F 49% 30.09 in 10.0 mi Calm Calm - N/A   Scattered Clouds
5:13 PM 68.0 °F 48.2 °F 49% 30.08 in 10.0 mi Calm Calm - N/A   Scattered Clouds
5:33 PM 68.0 °F 48.2 °F 49% 30.08 in 10.0 mi Calm Calm - N/A   Clear
5:53 PM 69.8 °F 48.2 °F 46% 30.07 in 10.0 mi Calm Calm - N/A   Scattered Clouds
6:13 PM 69.8 °F 48.2 °F 46% 30.07 in 10.0 mi Calm Calm - N/A   Scattered Clouds
6:33 PM 69.8 °F 48.2 °F 46% 30.07 in 10.0 mi Calm Calm - N/A   Scattered Clouds
6:53 PM 69.8 °F 48.2 °F 46% 30.07 in 10.0 mi Calm Calm - N/A   Scattered Clouds
7:13 PM 66.2 °F 48.2 °F 52% 30.07 in 10.0 mi Calm Calm - N/A   Clear
7:33 PM 64.4 °F 50.0 °F 59% 30.07 in 10.0 mi Calm Calm - N/A   Clear
7:53 PM 62.6 °F 51.8 °F 68% 30.07 in 10.0 mi Calm Calm - N/A   Clear
8:13 PM 60.8 °F 53.6 °F 77% 30.07 in 10.0 mi Calm Calm - N/A   Clear
8:33 PM 59.0 °F 51.8 °F 77% 30.07 in 10.0 mi Calm Calm - N/A   Clear
8:53 PM 55.4 °F 51.8 °F 88% 30.07 in 10.0 mi Calm Calm - N/A   Clear
9:13 PM 55.4 °F 50.0 °F 82% 30.07 in 10.0 mi Calm Calm - N/A   Clear
9:33 PM 53.6 °F 48.2 °F 82% 30.07 in 10.0 mi Calm Calm - N/A   Clear
9:53 PM 53.6 °F 48.2 °F 82% 30.07 in 10.0 mi Calm Calm - N/A   Clear
10:13 PM 51.8 °F 48.2 °F 88% 30.07 in 10.0 mi Calm Calm - N/A   Clear
10:33 PM 51.8 °F 46.4 °F 82% 30.07 in 10.0 mi Calm Calm - N/A   Clear
10:53 PM 50.0 °F 46.4 °F 87% 30.07 in 10.0 mi Calm Calm - N/A   Clear
11:13 PM 48.2 °F 46.4 °F 93% 30.07 in 10.0 mi Calm Calm - N/A   Clear
11:33 PM 48.2 °F 46.4 °F 93% 30.07 in 10.0 mi Calm Calm - N/A   Clear
11:53 PM 48.2 °F 46.4 °F 93% 30.06 in 10.0 mi Calm Calm - N/A   Clear